Vorticity
nan nan nan nan nan nan nan nan nan nan nan nan nan nan nan nan nan nan nan nan nan nan nan nan nan nan nan nan nan nan nan nan nan nan nan nan nan nan nan nan nan nan nan nan nan nan nan
nan 7 7 6 7 7 6 7 7 5 6 7 7 6 6 6 7 8 8 8 9 7 6 4 5 16 13 0 8 6 9 6 6 7 8 8 6 6 7 8 7 6 5 7 13 14 nan
nan 8 7 8 8 7 8 7 6 7 5 5 6 7 5 7 7 7 8 7 9 7 6 5 10 16 10 6 2 3 12 7 8 6 6 6 8 6 8 8 8 7 7 13 16 13 nan
nan 5 8 9 8 9 9 8 7 6 5 7 5 7 7 8 6 6 7 7 8 8 8 10 16 14 5 12 7 8 9 8 11 5 6 7 9 7 10 7 6 12 9 9 10 7 nan
nan 7 8 7 8 7 7 9 9 9 8 8 7 6 6 6 6 6 7 8 10 19 21 19 14 9 7 8 12 15 8 9 10 11 9 10 11 9 7 8 3 10 9 4 7 10 nan
nan 6 7 8 6 5 7 8 10 10 10 8 8 7 6 6 6 7 9 18 26 25 22 11 4 6 12 9 8 15 10 10 4 10 11 9 7 5 5 8 11 7 7 7 6 5 nan
nan 6 7 7 7 6 7 9 10 9 8 9 10 10 8 7 6 7 15 20 20 14 7 5 -2 -5 -3 9 9 7 10 10 8 9 9 7 5 11 6 1 6 7 7 6 6 5 nan
nan 7 6 8 7 8 9 10 9 9 10 10 9 10 9 7 7 13 14 11 9 3 6 13 8 6 2 5 6 3 15 9 11 8 4 11 8 10 9 7 5 4 7 4 10 18 nan
nan 7 7 8 7 7 8 8 8 10 10 10 10 9 9 8 10 15 12 5 3 10 16 16 18 14 22 14 3 6 8 7 8 9 9 2 12 16 5 2 10 8 8 8 6 11 nan
nan 7 8 8 7 7 8 8 9 10 10 10 10 9 8 11 12 11 7 4 7 14 11 15 14 14 15 7 16 21 5 6 10 8 7 7 10 5 7 6 9 8 12 5 4 9 nan
nan 7 7 8 7 8 8 9 9 10 10 10 11 11 11 10 7 6 3 3 17 13 7 15 10 15 17 2 7 20 7 8 13 9 7 7 15 10 9 9 4 7 9 11 11 9 nan
nan 7 8 6 7 9 8 8 10 10 10 9 11 12 9 9 10 7 5 14 15 8 7 8 12 10 9 4 4 15 12 6 10 8 9 11 3 12 11 14 6 6 7 11 15 13 nan
nan 7 7 7 8 9 8 9 9 10 10 9 10 12 12 8 6 9 9 16 11 4 5 11 10 10 9 12 7 11 16 8 3 10 8 8 7 5 8 8 12 12 8 9 8 11 nan
nan 8 7 8 9 9 9 9 9 9 10 10 10 15 14 7 7 7 13 13 9 6 5 9 5 11 16 9 9 11 12 8 3 9 16 8 11 12 9 9 6 8 7 6 8 8 nan
nan 8 8 9 9 9 9 10 9 8 9 10 15 15 13 13 10 7 13 7 8 6 6 7 13 14 8 8 16 13 10 11 11 5 7 7 7 10 13 17 4 4 11 8 6 7 nan
nan 8 7 8 10 9 9 9 10 9 8 10 14 11 14 14 6 5 10 11 1 -7 4 9 11 8 8 10 12 9 9 12 16 13 6 3 10 9 10 12 10 12 4 7 12 12 nan
nan 8 8 8 9 9 9 9 9 8 10 11 10 11 16 11 3 9 7 10 6 3 5 7 9 5 6 8 5 10 10 8 9 14 17 10 7 5 6 9 8 8 8 8 8 8 nan
nan 8 9 9 9 9 9 10 9 10 9 13 11 14 12 6 2 8 15 9 4 13 17 8 5 12 7 6 8 9 5 7 10 13 13 10 14 15 8 2 9 10 11 9 8 7 nan
nan 8 9 10 10 10 10 9 11 13 5 7 11 14 13 6 11 5 10 6 2 8 5 12 10 11 10 8 12 9 8 6 10 12 8 11 11 10 17 17 12 11 8 5 6 14 nan
nan 9 10 10 10 10 10 10 12 12 8 3 8 10 10 6 14 17 7 10 7 2 3 5 5 4 10 11 9 7 8 8 11 7 8 15 12 10 7 6 7 4 10 17 4 0 nan
nan 10 11 10 10 10 10 12 12 15 9 1 7 10 12 16 10 13 9 8 10 3 10 4 8 8 2 3 10 12 6 7 11 10 7 7 8 11 8 0 5 9 12 11 9 11 nan
nan 10 9 10 10 10 11 12 13 15 8 0 7 10 8 16 22 11 7 7 9 9 6 3 3 10 13 6 2 -2 8 8 6 9 10 10 10 8 10 11 4 7 18 18 12 7 nan
nan 9 10 10 10 11 12 13 13 14 3 1 8 8 11 13 13 15 11 9 8 10 6 10 5 2 8 17 13 11 6 6 8 8 12 11 11 9 7 8 8 11 14 14 18 13 nan
nan 11 10 11 12 12 13 15 16 15 -1 -4 8 11 11 10 11 11 16 14 9 6 8 10 5 8 7 14 18 17 16 14 10 11 10 9 9 6 9 10 9 7 4 13 24 15 nan
nan 11 11 12 13 15 16 16 17 17 4 -3 6 11 12 10 14 16 7 15 17 11 11 5 10 4 7 11 14 11 12 16 18 15 9 8 8 10 13 7 5 11 12 12 11 7 nan
nan 11 13 15 16 16 16 16 16 16 7 2 5 8 13 19 13 11 18 13 11 16 12 11 7 10 9 9 10 13 9 9 12 12 10 8 10 11 9 9 5 12 9 1 9 24 nan
nan 14 15 15 15 14 13 12 13 12 4 -0 10 9 6 11 19 16 10 9 11 11 12 18 12 10 9 8 10 10 10 11 14 11 5 5 12 10 7 6 7 18 13 8 5 2 nan
nan 14 13 13 12 11 11 12 12 12 6 -0 8 12 4 7 12 10 10 13 14 4 4 8 13 12 11 12 9 11 11 13 13 10 11 8 7 9 9 7 13 13 11 9 0 5 nan
nan nan nan nan nan nan nan nan nan nan nan nan nan nan nan nan nan nan nan nan nan nan nan nan nan nan nan nan nan nan nan nan nan nan nan nan nan nan nan nan nan nan nan nan nan nan nan
CAPE
21 22 21 22 22 20 19 20 26 29 23 2 7 5 0 0 0 21 12 0 5 0 0 0 0 1 0 0 0 0 0 0 0 0 0 0 0 0 0 0 0 0 0 0 0 0 0
22 25 22 17 15 9 8 10 19 24 29 24 12 15 13 9 5 18 6 0 5 0 0 0 0 3 0 0 0 0 0 0 0 0 0 0 0 0 0 0 0 0 0 0 0 0 138
23 25 20 33 33 20 11 17 21 26 9 10 16 29 18 25 21 26 1 0 0 0 0 0 0 4 4 0 0 0 0 0 0 0 0 0 0 0 0 0 0 0 0 0 0 0 30
20 21 22 28 34 34 34 46 43 29 38 31 2 21 14 24 37 18 0 0 0 0 0 0 0 4 0 0 0 0 0 0 0 0 0 0 0 0 0 0 0 0 0 0 0 0 0
7 20 22 35 41 41 42 51 65 49 50 38 44 30 30 21 17 2 0 0 0 0 0 0 0 1 0 0 0 0 0 0 0 0 0 0 0 0 0 0 0 0 0 0 0 0 0
12 25 34 33 32 39 31 52 61 57 56 56 49 44 46 29 10 0 0 0 0 0 0 0 9 0 0 0 0 0 0 0 0 0 0 0 0 0 0 0 0 0 0 0 0 0 0
9 21 15 27 29 33 23 38 60 55 52 56 58 53 45 36 17 0 0 0 0 0 0 0 0 0 0 0 0 0 0 0 0 0 0 0 0 0 0 0 0 0 0 0 0 0 0
10 14 24 35 36 35 35 44 57 52 51 52 59 61 49 24 13 0 0 0 0 0 1 0 0 0 0 0 0 0 0 0 0 0 0 0 0 0 0 0 0 0 0 0 0 0 0
37 32 31 39 37 29 27 40 52 51 56 49 62 73 52 24 3 0 0 0 0 0 1 0 0 0 0 0 0 0 0 0 0 0 0 0 0 0 0 0 0 0 0 0 0 0 0
47 32 45 35 33 30 27 26 22 56 55 58 56 71 39 7 0 0 0 0 0 0 0 0 0 0 0 0 0 0 0 0 0 0 0 0 0 0 0 0 0 0 0 0 0 0 0
49 40 37 47 34 34 39 28 33 31 63 66 66 59 40 17 0 0 0 0 0 0 0 0 0 0 0 0 0 0 0 0 0 0 0 0 0 0 0 0 0 0 0 0 0 0 0
46 32 30 36 29 48 46 39 52 53 54 56 59 64 37 6 0 0 0 0 1 8 0 0 0 0 0 0 0 0 0 0 0 0 0 0 0 0 0 0 0 0 0 0 0 0 0
45 49 46 26 36 44 50 54 49 45 55 49 63 64 39 0 0 0 0 0 40 4 0 0 0 0 0 0 0 0 0 0 0 0 0 0 0 0 0 0 0 0 0 0 0 0 0
53 45 39 19 28 51 62 54 65 48 45 56 61 56 25 0 0 0 0 15 15 0 0 0 0 0 0 0 0 0 0 0 0 0 0 0 0 0 0 0 0 0 0 0 0 0 0
44 46 37 33 33 51 67 58 68 62 55 50 69 27 18 0 0 0 0 6 4 4 0 0 0 0 0 0 0 0 0 0 0 0 0 0 0 0 0 0 0 0 0 0 0 0 0
60 44 28 38 42 64 66 57 79 80 68 59 36 56 18 0 0 6 5 7 9 1 0 0 0 0 0 0 0 0 0 0 0 0 0 0 0 0 0 0 0 0 0 0 0 0 0
56 43 30 33 52 60 64 70 84 69 69 64 43 48 11 0 1 20 2 3 2 0 0 0 0 0 0 0 0 0 0 0 0 0 0 0 0 0 0 0 0 0 0 0 0 0 0
60 34 26 36 35 57 59 82 85 63 65 71 41 3 4 0 2 15 0 3 0 0 0 0 0 0 0 0 0 0 0 0 0 0 0 0 0 0 0 0 0 0 0 0 0 0 0
75 31 27 38 64 60 73 87 95 71 95 60 12 7 10 0 1 9 2 1 0 0 0 0 0 0 0 0 0 0 0 12 26 2 0 2 1 0 0 0 0 0 0 0 0 0 0
50 45 34 40 62 68 78 82 84 107 110 41 7 1 14 7 0 0 9 6 4 0 0 0 0 0 0 0 0 0 0 0 82 29 38 16 23 24 20 0 0 0 0 0 0 0 0
59 59 63 71 60 72 78 80 100 108 84 40 9 1 5 0 2 0 4 5 8 2 2 0 0 0 0 0 0 0 0 0 68 83 70 34 3 0 0 0 0 0 0 0 0 0 0
59 58 65 56 69 71 76 95 92 103 69 29 0 13 19 11 10 6 7 1 7 1 8 0 0 0 0 0 0 0 0 0 0 30 72 56 0 0 0 0 0 0 0 0 0 0 0
65 64 65 68 72 88 102 95 85 78 68 20 5 1 33 42 23 5 2 10 1 10 0 0 0 0 0 0 0 0 0 0 0 42 3 24 0 0 0 0 0 0 0 0 0 0 0
79 82 80 75 98 107 104 87 77 97 70 22 30 39 17 9 7 1 8 1 3 3 0 0 0 0 0 0 0 28 62 71 57 63 10 0 0 0 0 0 0 0 0 0 0 0 0
83 79 96 112 99 92 91 92 93 72 70 39 36 41 30 6 29 17 29 9 0 0 2 0 0 0 0 0 0 0 0 1 11 40 12 0 0 0 0 0 0 0 0 0 0 0 0
85 103 100 93 97 74 52 52 58 55 65 44 47 10 8 14 0 14 6 15 0 0 0 0 0 0 0 0 8 5 0 0 0 20 7 0 0 0 3 0 0 0 0 0 0 0 0
72 73 83 82 75 84 84 80 83 87 81 27 18 17 9 1 2 6 11 13 1 0 0 0 0 0 0 1 11 1 0 0 2 0 19 0 0 0 1 0 0 0 0 2 2 0 0
53 64 66 65 64 64 76 77 68 78 81 55 18 14 8 6 1 37 23 6 2 1 0 0 0 0 5 0 18 3 0 0 0 0 0 0 0 0 1 2 0 0 0 0 0 0 0
43 39 37 46 53 58 60 69 85 83 81 91 41 34 22 12 4 0 2 10 3 0 0 0 0 0 0 0 0 0 0 0 0 0 0 0 0 0 0 0 0 91 3 1 0 0 0